| time (UTC) | temp C | wind direction | speed KPH | gust KPH | rain 1hr cm | rain 24hr cm | rain mn cm | humidity % | barometer mb |
| 20260507050054 | 5 | 235 | 0.0 | 4.8 | 0.00 | 1.47 | 0.00 | 95 | 1011.7 |
| 20260507044555 | 5 | 240 | 3.2 | 11.3 | 0.00 | 1.47 | 0.00 | 95 | 1011.4 |
| 20260507043053 | 5 | 0 | 1.6 | 8.0 | 0.00 | 1.47 | 0.00 | 95 | 1011.5 |
| 20260507041552 | 6 | 226 | 3.2 | 11.3 | 0.00 | 1.47 | 0.00 | 96 | 1011.4 |
| 20260507040051 | 6 | 0 | 1.6 | 11.3 | 0.00 | 1.47 | 0.00 | 95 | 1011.1 |
| 20260507034552 | 6 | 242 | 4.8 | 11.3 | 0.00 | 1.47 | 1.47 | 95 | 1010.5 |
| 20260507033055 | 6 | 246 | 1.6 | 6.4 | 0.00 | 1.47 | 1.47 | 96 | 1010.7 |
| 20260507031556 | 6 | 0 | 0.0 | 4.8 | 0.00 | 1.47 | 1.47 | 96 | 1010.6 |
| 20260507030056 | 6 | 160 | 1.6 | 4.8 | 0.00 | 1.47 | 1.47 | 96 | 1011.0 |
| 20260507024603 | 6 | 0 | 0.0 | 3.2 | 0.00 | 1.47 | 1.47 | 96 | 1010.8 |
| 20260507023059 | 6 | 236 | 0.0 | 3.2 | 0.00 | 1.47 | 1.47 | 96 | 1010.9 |
| 20260507021558 | 5 | 0 | 0.0 | 1.6 | 0.00 | 1.47 | 1.47 | 96 | 1010.8 |
| 20260507020057 | 5 | 0 | 0.0 | 1.6 | 0.00 | 1.47 | 1.47 | 96 | 1011.0 |
| 20260507014612 | 5 | 0 | 0.0 | 0.0 | 0.00 | 1.47 | 1.47 | 96 | 1011.2 |
| 20260507013056 | 5 | 0 | 0.0 | 0.0 | 0.00 | 1.47 | 1.47 | 96 | 1011.2 |
| 20260507011603 | 5 | 0 | 0.0 | 0.0 | 0.00 | 1.47 | 1.47 | 95 | 1011.0 |
| 20260507010112 | 5 | 0 | 0.0 | 0.0 | 0.00 | 1.47 | 1.47 | 96 | 1010.9 |
| 20260507004615 | 5 | 0 | 0.0 | 0.0 | 0.00 | 1.47 | 1.47 | 96 | 1010.6 |
| 20260507003059 | 5 | 0 | 0.0 | 0.0 | 0.00 | 1.47 | 1.47 | 96 | 1010.6 |
| 20260507001557 | 5 | 0 | 0.0 | 0.0 | 0.00 | 1.47 | 1.47 | 95 | 1010.7 |
| 20260507000051 | 6 | 0 | 0.0 | 3.2 | 0.00 | 1.47 | 1.47 | 96 | 1010.4 |
| 20260506234557 | 6 | 0 | 0.0 | 1.6 | 0.00 | 1.47 | 1.47 | 96 | 1010.4 |
| 20260506233058 | 6 | 0 | 0.0 | 1.6 | 0.00 | 1.47 | 1.47 | 96 | 1010.3 |
| 20260506231558 | 5 | 0 | 0.0 | 1.6 | 0.00 | 1.47 | 1.47 | 96 | 1010.1 |
| 20260506230053 | 5 | 0 | 0.0 | 1.6 | 0.00 | 1.47 | 1.47 | 96 | 1010.1 |
| 20260506224549 | 5 | 0 | 0.0 | 6.4 | 0.00 | 1.47 | 1.47 | 96 | 1009.9 |
| 20260506223052 | 5 | 244 | 0.0 | 6.4 | 0.00 | 1.47 | 1.47 | 96 | 1009.9 |
| 20260506221549 | 5 | 0 | 0.0 | 8.0 | 0.00 | 1.47 | 1.47 | 96 | 1009.8 |
| 20260506220056 | 5 | 0 | 1.6 | 9.7 | 0.00 | 1.47 | 1.47 | 96 | 1010.0 |
| 20260506214600 | 5 | 264 | 1.6 | 8.0 | 0.00 | 1.47 | 1.47 | 96 | 1009.6 |
| 20260506213053 | 5 | 235 | 4.8 | 11.3 | 0.00 | 1.47 | 1.47 | 96 | 1009.8 |
| 20260506211603 | 5 | 224 | 3.2 | 12.9 | 0.00 | 1.47 | 1.47 | 96 | 1009.5 |
| 20260506210051 | 5 | 0 | 6.4 | 17.7 | 0.00 | 1.47 | 1.47 | 96 | 1009.5 |
| 20260506204552 | 6 | 256 | 6.4 | 17.7 | 0.00 | 1.47 | 1.47 | 96 | 1009.2 |
| 20260506203052 | 6 | 249 | 4.8 | 14.5 | 0.00 | 1.47 | 1.47 | 95 | 1008.9 |
| 20260506201549 | 6 | 226 | 6.4 | 19.3 | 0.03 | 1.47 | 1.47 | 95 | 1008.8 |
| 20260506194605 | 6 | 255 | 4.8 | 20.9 | 0.08 | 1.55 | 1.47 | 96 | 1008.5 |
| 20260506193056 | 6 | 262 | 4.8 | 17.7 | 0.08 | 1.55 | 1.47 | 96 | 1008.6 |
| 20260506191605 | 6 | 0 | 4.8 | 20.9 | 0.05 | 1.52 | 1.45 | 96 | 1008.2 |
| 20260506190053 | 6 | 231 | 4.8 | 17.7 | 0.05 | 1.47 | 1.42 | 96 | 1008.3 |
| 20260506184554 | 6 | 241 | 3.2 | 12.9 | 0.03 | 1.47 | 1.40 | 95 | 1008.1 |
| 20260506183108 | 6 | 233 | 6.4 | 16.1 | 0.05 | 1.47 | 1.40 | 96 | 1007.9 |
| 20260506181601 | 7 | 253 | 1.6 | 19.3 | 0.05 | 1.47 | 1.40 | 96 | 1007.7 |
| 20260506180115 | 6 | 227 | 1.6 | 11.3 | 0.05 | 1.45 | 1.37 | 96 | 1007.6 |
| 20260506174551 | 6 | 236 | 0.0 | 9.7 | 0.05 | 1.45 | 1.37 | 96 | 1007.3 |
| 20260506173119 | 6 | 238 | 0.0 | 11.3 | 0.03 | 1.42 | 1.32 | 95 | 1007.3 |
| 20260506171547 | 6 | 224 | 3.2 | 9.7 | 0.05 | 1.42 | 1.32 | 95 | 1007.1 |
| 20260506170050 | 6 | 243 | 3.2 | 8.0 | 0.03 | 1.40 | 1.32 | 95 | 1007.2 |
| 20260506164551 | 6 | 243 | 3.2 | 8.0 | 0.03 | 1.40 | 1.32 | 95 | 1007.2 |
| 20260506163056 | 6 | 0 | 1.6 | 8.0 | 0.05 | 1.40 | 1.32 | 95 | 1007.2 |
| 20260506161555 | 6 | 242 | 3.2 | 9.7 | 0.03 | 1.37 | 1.30 | 95 | 1007.3 |
| 20260506160050 | 6 | 233 | 1.6 | 11.3 | 0.03 | 1.37 | 1.30 | 95 | 1007.0 |
| 20260506154553 | 6 | 257 | 3.2 | 9.7 | 0.05 | 1.37 | 1.30 | 95 | 1007.0 |
| 20260506153049 | 6 | 237 | 0.0 | 8.0 | 0.05 | 1.32 | 1.27 | 95 | 1007.1 |
| 20260506151554 | 6 | 236 | 0.0 | 6.4 | 0.08 | 1.32 | 1.27 | 95 | 1007.1 |
| 20260506150058 | 6 | 0 | 1.6 | 11.3 | 0.10 | 1.32 | 1.27 | 95 | 1007.0 |
| 20260506144603 | 6 | 206 | 3.2 | 8.0 | 0.13 | 1.32 | 1.24 | 95 | 1006.8 |
| 20260506143052 | 6 | 244 | 1.6 | 4.8 | 0.13 | 1.30 | 1.22 | 95 | 1006.9 |
| 20260506141555 | 6 | 0 | 3.2 | 8.0 | 0.13 | 1.27 | 1.19 | 95 | 1006.5 |
| 20260506140055 | 6 | 243 | 1.6 | 8.0 | 0.15 | 1.24 | 1.17 | 95 | 1006.7 |
| 20260506134554 | 6 | 255 | 0.0 | 11.3 | 0.20 | 1.19 | 1.12 | 95 | 1006.6 |
| 20260506133101 | 6 | 0 | 0.0 | 8.0 | 0.25 | 1.17 | 1.09 | 95 | 1006.9 |
| 20260506131550 | 6 | 0 | 0.0 | 4.8 | 0.36 | 1.14 | 1.07 | 95 | 1006.8 |
| 20260506130053 | 6 | 228 | 0.0 | 3.2 | 0.38 | 1.09 | 1.02 | 95 | 1006.7 |
| 20260506124552 | 7 | 0 | 0.0 | 4.8 | 0.33 | 0.99 | 0.91 | 95 | 1006.8 |
| 20260506123056 | 7 | 225 | 1.6 | 11.3 | 0.28 | 0.91 | 0.84 | 95 | 1006.6 |
| 20260506121559 | 7 | 220 | 1.6 | 8.0 | 0.20 | 0.79 | 0.71 | 95 | 1006.4 |
| 20260506120051 | 7 | 243 | 0.0 | 8.0 | 0.20 | 0.71 | 0.64 | 94 | 1006.3 |
| 20260506114607 | 8 | 0 | 0.0 | 8.0 | 0.20 | 0.66 | 0.58 | 95 | 1006.2 |
| 20260506113057 | 8 | 219 | 1.6 | 4.8 | 0.23 | 0.64 | 0.56 | 95 | 1006.2 |
| 20260506111600 | 8 | 214 | 0.0 | 1.6 | 0.20 | 0.58 | 0.51 | 95 | 1006.1 |
| 20260506104557 | 7 | 0 | 0.0 | 1.6 | 0.18 | 0.43 | 0.36 | 95 | 1006.2 |
| 20260506103057 | 7 | 214 | 0.0 | 4.8 | 0.20 | 0.41 | 0.33 | 94 | 1006.3 |
| 20260506101552 | 7 | 165 | 0.0 | 1.6 | 0.23 | 0.38 | 0.30 | 94 | 1006.7 |
| 20260506100053 | 7 | 0 | 0.0 | 1.6 | 0.20 | 0.33 | 0.25 | 94 | 1006.5 |
| 20260506094611 | 7 | 245 | 0.0 | 4.8 | 0.15 | 0.33 | 0.18 | 94 | 1006.8 |
| 20260506093055 | 7 | 238 | 0.0 | 6.4 | 0.10 | 0.28 | 0.13 | 94 | 1006.5 |
| 20260506091553 | 7 | 238 | 3.2 | 9.7 | 0.08 | 0.23 | 0.08 | 93 | 1007.1 |
| 20260506090052 | 7 | 236 | 3.2 | 9.7 | 0.05 | 0.20 | 0.05 | 93 | 1007.5 |
| 20260506084556 | 8 | 216 | 0.0 | 4.8 | 0.03 | 0.18 | 0.03 | 93 | 1007.2 |
| 20260506083057 | 8 | 0 | 0.0 | 3.2 | 0.03 | 0.18 | 0.03 | 93 | 1006.9 |
| 20260506081552 | 8 | 0 | 0.0 | 6.4 | 0.00 | 0.15 | 0.00 | 93 | 1006.6 |
| 20260506080106 | 7 | 0 | 0.0 | 3.2 | 0.00 | 0.15 | 0.00 | 93 | 1006.8 |
| 20260506073109 | 7 | 0 | 0.0 | 4.8 | 0.00 | 0.15 | 0.00 | 93 | 1006.9 |
| 20260506071553 | 7 | 0 | 0.0 | 0.0 | 0.00 | 0.15 | 0.00 | 93 | 1007.1 |
| 20260506061611 | 7 | 0 | 0.0 | 3.2 | 0.00 | 0.15 | 0.00 | 92 | 1008.4 |